Location: Grand Rapids
(42.9630°N, 85.6680°W)
Time: 02:05:00
(UTC-04:00)

S-56A Canister/Altair - Pass Details

Date: 05 June 2024
Orbit: 637 x 2489 km, 38.9° (Epoch: 21 June)

Event Time Altitude Azimuth Distance (km) Brightness Sun altitude
Rises 01:04:17 0° 192° (SSW) 5,510 - -23.9°
Reaches altitude 10° 01:08:43 10° 179° (S) 4,748 - -24.0°
Exits shadow 01:17:22 24° 140° (SE) 4,022 10.7 -24.2°
Maximum altitude 01:18:39 24° 133° (SE) 4,029 10.7 -24.2°
Drops below altitude 10° 01:29:13 10° 87° (E) 5,123 11.7 -24.4°
Sets 01:34:11 0° 76° (ENE) 6,037 12.2 -24.4°
